Terug naar catalogus

COSMOS 397 DEB

ActiefLEO
NORAD 21723·DEBRIS·🇷🇺 Russia

Gelanceerd Feb 25, 1971 vanaf Baikonur Cosmodrome

Loading…

Volgende Passages (komende 24 uur)

TLE

VersSource: Space-Track

Epoch: Sep 14, 2026, 00:48 UTC

1 21723U 71015DW  26257.03398202  .00018570  00000-0  13154-2 0  9995
2 21723  65.6616 123.9095 0175557   6.7148 353.6263 14.93232620784854

Volg COSMOS 397 DEB in realtime met AllMySat

Download on the App Store